Theta_e
315 314 312 320 322 318 320 322 324 326 327 329 332 341 340 341 345 357 340 354 356 342 346 346 347 349 346 342 340 338 338 338 337 335 329 321 322 323 322 321 323 324 326 328 330 330 328 326 326
314 317 321 321 319 320 321 323 325 327 328 330 332 336 343 350 348 347 354 356 348 340 343 344 347 348 345 341 338 336 336 337 337 335 332 324 322 322 321 323 326 327 328 328 328 326 327 326 322
312 323 328 317 316 319 321 324 326 327 330 329 332 336 340 352 349 352 351 355 347 338 343 345 345 347 344 340 337 336 335 336 338 337 335 328 322 322 323 326 331 333 330 325 329 331 326 322 322
317 328 330 317 315 314 318 320 322 323 326 328 331 333 345 352 353 352 355 356 352 340 345 346 344 345 343 339 336 335 334 336 338 337 335 331 323 323 323 326 329 332 335 334 335 327 323 324 323
323 322 321 316 316 316 317 318 320 320 323 327 329 333 344 351 352 352 352 354 352 341 346 347 344 345 342 338 337 335 332 333 336 335 333 330 325 322 324 325 326 325 325 327 326 324 326 326 326
323 321 318 321 319 319 317 320 320 319 321 322 327 332 345 350 353 354 353 353 354 343 346 348 347 346 342 339 338 335 333 331 331 331 330 328 326 324 322 324 325 325 325 326 326 326 324 323 323
319 320 320 319 320 320 320 322 319 319 320 321 323 330 346 345 351 353 354 357 359 346 345 349 348 345 342 339 338 336 333 330 330 328 327 326 326 324 322 323 325 324 324 324 324 324 324 323 323
317 317 320 322 322 320 321 322 323 322 321 324 324 326 343 347 347 348 359 360 360 358 345 348 348 345 342 339 338 336 334 330 327 326 325 324 324 323 321 322 324 324 324 323 323 324 323 322 321
317 316 318 319 320 320 321 319 323 323 324 324 325 324 347 348 349 350 360 360 360 359 356 345 347 345 340 339 338 336 334 331 327 324 323 322 321 321 320 322 323 323 322 323 323 323 321 321 323
312 313 316 317 318 318 319 320 320 321 321 322 323 324 344 348 349 351 359 360 359 359 359 347 345 345 341 339 338 336 335 332 328 324 321 319 319 320 320 322 322 323 322 322 322 325 323 324 339
312 313 314 315 316 316 316 316 317 318 318 320 320 322 341 345 346 352 356 359 358 359 359 350 342 344 343 341 339 336 336 334 330 325 321 319 325 322 324 331 332 324 321 324 323 337 337 337 336
312 313 313 314 315 315 314 316 316 316 316 318 318 320 323 325 345 345 352 357 358 358 357 355 342 345 344 342 340 338 335 337 331 327 321 323 334 336 332 342 342 338 329 334 335 336 340 338 335
313 313 315 315 315 315 316 315 315 315 316 317 317 318 322 323 323 334 346 351 356 356 356 355 341 345 344 343 341 339 336 338 333 331 323 335 339 341 338 343 343 341 337 338 340 340 340 339 342
314 314 314 315 315 315 313 313 315 316 316 316 317 318 320 323 323 323 326 345 357 355 356 356 351 341 344 344 345 343 339 338 336 335 328 336 341 343 340 341 341 341 339 339 341 342 342 343 346
315 314 314 314 314 313 314 313 313 315 316 316 316 317 318 320 323 322 323 333 343 355 355 355 353 346 344 347 347 346 342 341 339 342 339 333 338 338 338 339 338 340 337 338 341 347 347 344 346
314 313 312 313 313 314 313 312 313 314 313 314 316 317 317 319 320 323 322 325 336 351 353 354 353 347 348 350 348 345 346 344 344 347 345 335 335 336 336 331 331 335 338 337 342 342 343 346 347
313 314 312 313 313 314 312 312 313 314 314 313 314 316 317 317 318 319 323 322 331 351 354 352 350 350 352 350 347 347 348 347 348 348 346 343 332 332 333 336 338 338 339 339 344 347 347 347 346
314 316 316 315 314 314 313 313 314 315 314 313 314 314 317 317 317 318 320 323 324 339 354 350 347 343 352 351 349 349 349 347 348 347 347 344 330 333 335 339 340 338 338 339 344 346 346 345 343
319 318 318 317 316 315 314 314 313 314 315 314 314 314 315 317 317 318 319 324 324 340 354 347 337 338 353 351 349 351 348 348 347 347 347 345 335 336 334 339 341 343 344 343 345 343 343 342 339
318 319 318 316 315 314 315 315 314 314 315 316 315 315 315 316 318 318 319 321 326 332 351 354 349 352 354 352 350 349 349 349 347 346 346 346 339 338 338 341 341 340 340 339 337 339 337 334 333
317 317 316 316 315 316 315 315 315 315 316 316 316 316 315 317 317 318 319 320 325 327 338 351 352 354 354 354 351 348 349 349 346 346 347 346 343 343 341 340 342 341 342 340 339 333 331 332 334
318 317 317 318 318 317 316 318 316 315 316 316 316 315 315 315 318 318 319 320 322 325 331 343 351 352 353 350 351 348 349 349 347 347 347 346 346 347 341 340 342 343 341 335 329 331 331 330 329
317 317 317 317 317 313 315 317 316 315 316 315 315 316 315 314 317 318 320 319 322 323 328 346 353 351 351 341 351 348 348 348 349 348 347 346 346 346 346 343 342 339 333 331 330 330 330 331 331
316 316 317 316 315 318 316 318 316 316 315 315 315 315 315 315 315 318 320 320 320 324 326 329 342 349 352 345 350 347 348 349 348 348 345 345 346 346 342 339 334 332 332 330 329 331 331 325 320
318 318 320 320 316 318 315 319 318 318 317 316 315 316 315 315 316 317 319 321 321 327 328 327 329 346 354 352 350 348 348 348 347 345 346 347 344 341 336 332 332 331 329 328 331 330 324 318 316
319 319 320 322 318 317 319 322 318 317 316 316 316 316 315 315 315 317 321 323 324 329 329 328 333 344 350 352 349 347 334 345 346 343 345 344 341 337 335 333 330 327 330 332 329 322 316 313 313
317 318 318 321 321 322 318 317 316 317 317 316 316 316 315 315 316 319 320 321 339 337 334 331 334 343 349 351 349 347 345 345 340 345 343 343 338 336 334 328 330 332 331 328 320 315 314 313 313
315 316 317 319 323 321 316 317 320 318 318 318 317 314 314 315 317 319 320 321 340 337 338 337 339 344 349 350 348 348 342 340 344 343 344 341 335 334 329 332 331 330 322 317 315 313 313 313 314
315 316 317 318 318 321 318 317 319 318 319 319 319 316 316 317 317 320 319 320 331 338 340 345 342 343 348 348 343 341 338 344 343 345 344 336 332 331 330 330 328 320 316 314 313 313 313 314 315
313 313 315 320 322 320 322 322 318 317 317 319 320 318 318 320 320 320 319 319 330 339 339 341 343 343 348 346 346 342 345 344 346 344 337 329 329 328 330 324 319 315 313 313 313 315 316 315 314
Wind_Speed
9 5 3 2 2 2 6 8 9 18 16 21 23 11 9 13 7 5 20 22 16 23 30 27 25 24 22 21 19 17 16 15 13 12 12 14 16 18 18 18 17 16 15 13 10 8 6 7 6
8 8 2 5 3 4 6 12 17 19 28 37 17 12 17 9 17 16 25 24 12 24 30 28 26 24 22 20 18 16 15 14 13 11 11 12 14 16 17 16 15 13 12 10 8 6 6 5 5
10 9 2 4 4 9 5 10 15 19 37 28 5 9 9 20 29 23 25 23 17 28 30 28 26 24 22 20 18 17 15 14 13 11 10 10 12 14 15 14 13 11 10 8 7 5 4 3 3
6 5 7 2 10 9 17 14 20 22 34 34 19 5 12 23 25 28 27 23 21 29 29 28 25 23 22 21 18 17 16 14 13 11 10 10 11 12 13 12 11 10 8 7 5 4 3 2 2
3 6 4 5 12 10 14 20 26 26 24 27 24 1 10 21 24 30 25 21 21 31 30 28 25 23 22 20 18 16 15 14 13 11 10 10 10 11 11 10 9 8 6 5 3 2 0 1 2
5 6 2 12 15 13 11 32 28 22 28 30 13 6 8 26 33 29 21 19 14 28 31 29 26 24 22 20 18 17 15 14 13 11 10 10 10 11 11 9 8 6 4 3 2 1 2 3 4
6 4 6 10 13 15 11 29 13 17 22 24 29 5 16 24 28 26 22 21 17 24 33 30 27 26 24 21 19 17 15 14 13 12 11 11 10 11 11 9 7 5 3 2 1 3 4 5 5
15 3 8 11 13 17 19 27 29 22 22 33 28 7 7 25 24 25 31 22 17 19 29 31 28 27 26 23 20 17 15 14 13 12 11 10 11 11 11 9 7 4 2 2 3 4 4 4 4
22 9 11 11 14 12 28 15 35 31 22 33 33 19 27 25 24 25 36 27 23 21 22 29 30 27 27 25 22 19 16 15 14 13 12 12 11 11 11 9 6 4 3 3 3 3 3 2 2
8 6 9 7 11 12 20 21 27 22 26 26 34 16 25 27 26 26 37 35 29 29 24 25 33 30 28 27 23 21 19 16 15 14 13 13 12 10 10 7 5 3 3 2 1 2 2 2 4
15 13 12 19 28 28 23 26 31 17 16 20 27 35 22 27 26 28 30 36 30 28 22 26 34 32 31 28 26 24 20 17 15 14 14 14 13 11 11 6 1 3 3 1 3 4 4 1 3
6 16 21 22 28 27 14 26 22 21 26 31 35 34 29 18 26 28 31 36 34 29 25 20 33 34 31 28 26 22 21 18 16 15 16 14 13 7 7 6 2 1 3 4 1 1 1 4 7
8 11 24 23 20 18 25 16 17 30 36 34 38 36 37 25 19 19 30 31 38 35 31 25 32 34 30 27 25 24 21 18 15 15 18 16 13 10 6 7 5 4 2 2 3 3 3 7 6
19 22 24 26 24 23 12 15 19 33 35 33 33 36 35 30 19 19 23 29 40 41 41 36 34 34 30 25 20 19 21 18 16 14 20 19 17 15 14 17 11 6 4 5 6 5 7 6 9
21 14 15 16 16 11 21 14 18 31 31 31 32 36 35 35 24 16 7 25 28 38 45 44 38 37 33 24 18 15 20 20 19 14 18 17 19 16 12 19 17 15 10 12 7 7 6 10 10
12 11 8 12 9 19 15 13 16 34 36 28 30 34 33 35 30 24 15 9 21 30 42 47 42 40 34 26 20 19 20 17 20 14 12 17 19 15 12 12 7 9 8 10 11 12 17 15 16
7 12 13 19 16 17 9 12 16 33 32 30 30 33 34 36 37 31 22 14 8 22 49 45 36 32 33 24 19 21 20 17 21 17 12 14 18 14 13 9 8 11 11 14 13 13 14 16 19
12 7 12 16 13 5 7 7 11 16 27 33 33 32 31 36 42 36 26 24 18 15 35 43 15 34 32 38 36 27 24 19 25 20 16 11 17 13 17 14 12 19 17 17 15 14 17 19 20
9 18 20 20 17 4 7 7 10 18 21 16 29 31 31 34 40 39 33 22 24 15 30 43 45 46 48 42 37 33 28 25 22 21 17 11 15 15 18 16 13 14 14 16 16 16 15 14 17
19 17 23 22 15 14 12 15 14 17 17 21 18 24 32 35 36 40 35 30 22 20 23 29 30 39 47 39 33 35 29 24 25 22 16 12 13 15 17 13 10 12 9 9 10 10 8 5 9
16 16 15 18 15 16 12 14 11 12 16 28 29 26 29 37 41 42 42 38 28 29 30 32 28 33 24 24 31 30 29 26 28 24 21 16 16 15 16 16 11 8 8 6 5 2 7 8 7
14 12 19 17 14 12 3 14 17 10 14 13 22 29 32 34 37 46 46 45 40 33 34 34 36 27 27 24 31 32 36 34 33 30 24 20 18 15 14 13 10 8 7 2 7 7 6 4 5
20 16 8 13 12 12 10 5 28 5 14 20 17 28 35 38 34 39 44 50 49 39 42 39 37 36 34 36 41 40 29 36 32 29 23 21 15 14 12 10 10 6 7 7 8 5 4 6 7
18 18 10 12 7 12 11 7 26 13 17 16 16 26 33 36 45 39 37 50 49 42 48 42 38 38 41 38 43 32 32 38 34 26 24 21 19 15 11 10 8 8 8 8 6 4 4 6 8
10 4 3 3 3 11 3 7 18 9 18 20 18 29 30 39 40 39 41 44 46 44 49 46 43 44 40 40 40 40 44 27 29 24 22 23 17 15 14 13 11 11 10 7 4 5 7 9 10
13 3 4 6 4 4 2 7 10 15 24 30 36 32 35 38 39 42 37 29 39 53 51 51 48 45 42 45 39 38 39 31 28 24 24 22 20 13 13 11 13 12 8 5 4 5 6 8 11
2 3 3 6 8 8 8 16 16 6 7 18 17 30 29 25 37 43 44 26 41 53 56 53 47 46 46 47 43 40 43 43 35 28 26 23 17 17 15 14 13 10 7 5 5 6 8 11 10
10 5 4 3 5 5 6 7 2 6 6 12 15 12 18 26 31 43 34 27 40 50 56 52 49 48 50 50 48 39 38 37 29 24 27 21 20 21 18 14 11 9 8 6 6 9 10 10 11
5 6 5 7 7 5 3 4 1 6 7 9 14 16 11 25 22 36 39 38 36 48 52 56 49 48 53 53 41 42 40 35 33 35 29 24 24 22 17 13 11 11 9 7 8 9 11 12 11
17 16 13 6 5 1 1 7 13 4 7 8 15 5 5 22 29 37 52 41 37 53 55 50 47 46 53 47 47 49 42 44 41 34 27 27 29 23 18 15 13 11 11 10 10 13 13 13 14
Wind_Direction
236 213 223 266 41 150 234 244 247 270 282 273 296 132 156 139 164 206 150 201 197 165 161 160 156 151 149 146 142 140 138 136 133 129 123 128 132 129 128 128 129 132 132 130 129 124 113 95 96
210 160 286 272 158 226 252 241 252 256 261 276 287 47 69 95 114 139 155 178 161 167 161 161 158 154 150 147 142 141 141 140 139 135 129 131 134 130 130 129 129 131 132 134 128 110 90 81 84
197 181 248 172 216 222 240 250 252 256 260 270 249 105 103 116 121 138 169 170 162 166 162 161 158 154 151 147 147 145 145 145 145 141 136 135 138 136 135 133 128 128 130 123 115 108 102 90 85
157 180 263 222 242 238 230 252 272 282 292 302 303 129 89 133 138 157 167 171 163 167 165 161 156 153 154 152 150 146 146 150 151 151 146 143 146 146 142 135 126 122 124 129 135 133 114 88 60
233 267 227 230 248 262 269 261 261 274 278 285 291 201 94 123 141 151 166 171 171 169 167 162 158 154 155 154 149 146 146 151 154 157 155 154 153 152 150 142 136 130 129 141 151 152 63 10 2
254 232 263 232 251 259 253 257 262 271 283 292 304 233 126 138 146 158 166 168 167 168 167 165 161 156 157 157 155 152 153 155 156 162 162 158 159 159 162 159 146 142 145 153 160 241 325 341 349
218 268 237 260 271 278 260 264 263 257 272 278 284 268 143 149 152 158 167 167 157 166 169 167 165 161 160 162 160 159 159 161 163 165 165 165 166 170 170 167 160 161 166 193 266 299 313 328 345
247 238 265 258 253 264 274 280 281 287 282 279 276 290 159 146 151 154 161 162 156 153 171 170 171 168 164 166 166 166 164 164 167 168 166 169 173 174 174 172 177 180 210 273 296 305 319 336 358
247 246 250 256 264 279 289 298 296 313 320 313 283 263 148 150 152 152 150 158 160 167 169 175 173 174 170 169 172 174 172 169 170 171 171 170 174 177 174 182 191 200 241 265 289 309 333 18 72
230 257 251 260 270 278 289 298 307 330 326 325 342 240 155 146 153 162 157 160 170 173 175 179 174 179 175 175 177 180 180 176 175 174 171 167 170 172 182 184 193 217 246 265 284 351 46 110 126
240 244 260 271 279 284 292 302 307 317 304 318 327 325 152 158 163 169 172 168 179 183 181 179 176 183 181 180 182 184 183 181 181 175 171 166 156 174 180 151 125 232 225 240 199 111 97 71 277
274 247 243 251 257 274 286 302 299 301 293 306 309 315 289 189 177 181 180 174 181 193 192 183 183 184 185 182 183 192 189 187 187 174 167 173 148 162 170 122 71 48 176 90 64 90 276 328 3
328 314 316 306 305 283 288 286 293 293 294 300 299 312 309 331 219 211 192 189 191 194 198 187 183 184 185 180 182 194 194 198 189 177 170 172 167 182 190 206 228 231 128 72 358 346 276 321 337
299 295 296 300 304 303 306 304 297 284 287 291 293 300 305 313 328 243 242 192 186 199 198 185 173 184 183 183 177 183 197 196 194 182 179 178 180 182 196 203 213 207 233 281 249 278 272 305 290
317 313 303 289 265 275 284 286 279 282 286 290 287 291 296 301 305 304 283 223 194 200 184 176 171 175 176 179 183 191 185 193 192 179 192 189 189 192 198 208 203 212 223 233 240 226 231 252 254
290 287 287 281 281 269 243 257 260 270 280 281 283 281 286 291 296 301 281 1 207 187 194 183 172 168 164 172 183 187 172 175 179 179 188 195 192 193 202 198 189 185 219 233 242 242 241 255 256
252 254 250 270 243 244 225 254 248 249 257 270 271 274 271 281 285 288 286 271 309 166 182 164 153 166 161 173 218 192 178 177 182 195 204 209 199 192 199 177 167 222 237 228 244 254 259 266 274
271 301 300 275 274 272 285 291 294 312 237 248 255 260 266 265 271 274 282 262 287 212 181 185 217 194 181 168 168 182 186 183 185 196 204 216 200 189 171 199 218 225 233 238 250 269 277 282 293
297 307 287 290 292 243 238 280 282 286 293 289 251 250 251 258 264 265 269 267 260 232 192 180 185 190 178 167 166 176 182 180 185 203 206 214 196 191 185 208 223 234 243 251 264 271 283 304 313
280 242 265 280 282 287 297 240 260 269 264 273 268 257 252 248 252 257 258 253 240 213 212 211 192 178 180 175 179 180 177 176 187 194 201 205 201 195 192 221 226 245 262 272 269 274 296 341 30
255 259 278 274 284 288 304 289 252 253 244 267 268 273 263 242 240 251 249 242 234 217 196 205 215 188 186 182 188 176 175 178 185 190 191 189 195 199 199 217 230 246 275 267 305 141 102 89 58
278 273 263 270 303 280 68 285 276 255 276 270 264 255 257 256 239 233 244 237 236 234 202 193 205 210 194 192 194 185 183 183 186 183 184 194 199 206 197 215 241 259 266 180 136 112 92 82 61
274 281 305 289 271 290 245 257 269 232 250 246 250 250 248 251 255 240 233 229 229 231 210 191 191 199 201 206 195 179 181 186 177 180 186 189 188 189 192 209 237 193 167 144 128 114 70 33 18
266 265 248 263 266 264 267 244 270 252 253 259 255 254 246 248 245 246 232 220 222 219 203 192 195 201 202 210 193 181 177 176 178 181 182 179 187 191 194 196 174 152 137 138 137 94 56 37 25
304 66 296 267 213 250 272 244 260 278 269 258 248 250 249 248 243 253 236 218 208 199 197 194 197 200 197 199 189 179 175 182 185 179 178 180 178 180 177 167 151 143 145 139 93 53 35 18 10
310 197 228 255 212 265 327 232 250 233 251 259 251 253 245 257 233 244 227 209 200 198 200 198 195 197 196 196 187 176 165 178 185 170 181 181 180 181 168 155 145 146 149 122 69 42 38 24 14
236 295 212 274 250 265 240 262 281 311 290 308 244 246 232 263 225 237 224 211 193 192 194 196 195 197 196 189 184 178 169 171 184 168 185 179 177 167 162 158 148 145 142 114 76 46 40 37 29
210 268 264 213 276 223 239 269 199 289 344 342 322 269 241 260 260 227 222 212 195 196 196 194 194 196 192 187 183 175 175 179 177 179 173 172 168 162 156 154 147 144 123 95 67 52 43 40 43
257 230 256 263 239 268 298 252 99 331 353 314 316 263 283 294 279 222 229 225 200 196 197 192 197 192 190 180 181 176 176 175 181 179 169 164 160 154 156 156 148 139 122 92 63 57 56 58 56
265 274 254 258 246 213 221 256 243 268 315 346 328 266 247 327 309 234 229 222 202 197 201 196 192 196 185 179 178 175 174 180 173 164 160 155 157 152 158 151 141 121 100 89 77 71 66 59 50